Location: *
(50.9167°S, 179.4000°W)
Time: 20:51:42
(UTC+00:00)

COSMOS 2428 - Pass Details

Date: 21 June 2024
Orbit: 843 x 857 km, 70.9° (Epoch: 17 July)

Event Time Altitude Azimuth Distance (km) Brightness Sun altitude
Exits shadow 18:48:13 - 204° (SSW) 3,021 5.1 -10.8°
Reaches altitude 10° 18:50:12 10° 190° (S) 2,524 4.8 -10.5°
Maximum altitude 18:53:47 16° 152° (SSE) 2,097 4.8 -10.0°
Drops below altitude 10° 18:57:20 10° 114° (ESE) 2,510 5.8 -9.5°
Sets 19:00:48 0° 93° (E) 3,437 7.1 -9.0°
